EDT,Max TemperatureF,Mean TemperatureF,Min TemperatureF,Max Dew PointF,MeanDew PointF,Min DewpointF,Max Humidity, Mean Humidity, Min Humidity, Max Sea Level PressureIn, Mean Sea Level PressureIn, Min Sea Level PressureIn, Max VisibilityMiles, Mean VisibilityMiles, Min VisibilityMiles, Max Wind SpeedMPH, Mean Wind SpeedMPH, Max Gust SpeedMPH,PrecipitationIn, CloudCover, Events, WindDirDegrees
2012-10-1,68,62,59,66,61,57,100,96,88,29.92,29.86,29.82,10,4,1,9,5,,0.29,8,Rain,66
2012-10-2,82,74,66,74,72,66,100,90,76,29.98,29.84,29.78,10,7,0,16,3,23,0.21,6,Fog-Rain-Thunderstorm,200
2012-10-3,81,74,68,71,67,64,100,87,58,30.21,30.08,29.99,10,7,1,9,1,,0.00,2,Rain,236
2012-10-4,80,71,62,67,64,60,100,84,52,30.26,30.21,30.18,10,9,5,8,2,,0.00,2,Rain,240
2012-10-5,81,69,57,61,58,55,97,74,42,30.22,30.14,30.05,10,9,2,6,1,,0.00,0,,118
2012-10-6,82,71,60,65,61,58,100,78,44,30.04,29.97,29.90,10,8,2,13,5,17,0.16,3,Rain,246
2012-10-7,64,58,54,63,54,49,100,91,80,30.16,30.05,29.96,10,9,1,16,9,26,0.24,7,Rain-Thunderstorm,30
2012-10-8,54,50,46,49,46,45,97,82,76,30.22,30.17,30.12,10,9,3,14,10,17,0.00,8,Rain,34
2012-10-9,57,52,46,52,48,46,100,88,74,30.22,30.16,30.10,10,8,4,9,6,,0.00,8,,12
2012-10-10,71,58,46,56,49,45,100,83,45,30.16,30.10,30.05,10,7,0,10,3,,0.00,2,Fog,249
2012-10-11,69,57,46,49,43,36,92,70,33,30.34,30.26,30.17,10,10,10,7,3,,0.00,0,,33
2012-10-12,75,60,46,57,50,45,93,74,44,30.33,30.25,30.21,10,10,10,5,1,,0.00,2,,47
2012-10-13,66,56,46,52,45,40,89,69,45,30.49,30.42,30.33,10,10,10,13,6,,0.00,1,,50
2012-10-14,75,60,46,61,55,45,97,81,57,30.34,30.22,30.06,10,10,7,6,1,16,0.00,5,,197
2012-10-15,77,68,59,67,60,42,100,80,42,30.04,29.89,29.75,10,9,0,13,7,21,0.32,5,Fog-Rain-Thunderstorm,233
2012-10-16,70,58,48,49,44,40,89,60,36,30.01,29.95,29.91,10,10,7,9,4,,0.00,0,,15
2012-10-17,72,58,46,50,46,44,96,72,38,30.04,29.98,29.94,10,10,8,9,1,,0.00,0,,200
2012-10-18,78,64,50,62,56,49,100,82,56,29.95,29.87,29.80,10,9,6,9,1,,0.00,4,,188
2012-10-19,73,62,51,61,49,29,100,75,20,29.83,29.79,29.74,10,6,0,16,5,24,0.01,3,Fog,229
2012-10-20,70,58,46,47,41,36,73,56,37,30.00,29.87,29.80,10,10,10,10,5,16,0.00,0,,269
2012-10-21,69,57,45,46,42,39,86,62,33,30.18,30.13,30.01,10,10,9,8,4,,0.00,0,,44
2012-10-22,75,59,43,51,46,41,93,67,33,30.28,30.21,30.17,10,10,10,5,1,,0.00,0,,281
2012-10-23,79,63,48,52,49,46,96,68,36,30.24,30.18,30.13,10,10,10,8,2,,0.00,0,,231
2012-10-24,82,65,50,59,51,47,96,68,32,30.23,30.17,30.11,10,10,9,6,2,,0.00,0,,234
2012-10-25,79,65,51,60,56,50,97,76,48,30.19,30.14,30.10,10,10,6,6,1,,0.00,1,,67
2012-10-26,75,65,57,60,57,56,96,79,53,30.11,30.04,29.94,10,10,8,16,6,23,0.00,0,,37
2012-10-27,71,66,61,61,57,51,94,76,57,29.92,29.81,29.71,10,9,8,18,12,25,0.00,4,,17
2012-10-28,70,62,54,51,48,41,72,60,46,29.73,29.68,29.61,10,10,10,16,12,28,0.00,3,,348
2012-10-29,54,50,46,38,32,29,58,50,43,29.69,29.62,29.52,10,10,10,20,12,30,0.00,7,Rain,307
2012-10-30,53,48,43,35,31,29,68,53,43,29.71,29.56,29.47,10,10,10,18,13,28,0.00,6,Rain,267
2012-10-31,61,51,39,36,34,31,86,61,34,29.84,29.75,29.70,10,10,10,17,7,25,0.00,3,,255